Regional Weather Roundup
Issued by NWS Charleston, SC

Current Version | Previous Version | Text Only | Print | Product List | Glossary Off
Versions: 1 2 3 4 5 6 7 8 9 10 11 12 13 14 15 16 17 18 19 20 21 22 23 24 25 26 27 28 29 30 31 32 33 34 35 36 37 38 39 40 41 42 43 44 45 46 47 48 49 50

000
ASUS42 KCHS 012125
RWRCHS

REGIONAL WEATHER ROUNDUP
NATIONAL WEATHER SERVICE CHARLESTON SC
500 PM EDT WED OCT 01 2014

NOTE: "FAIR" INDICATES FEW OR NO CLOUDS BELOW 12,000 FEET WITH NO
SIGNIFICANT WEATHER AND/OR OBSTRUCTIONS TO VISIBILITY.

NOT ALL STATIONS ARE QUALITY CONTROLLED BY THE NATIONAL
WEATHER SERVICE. USE DATA WITH CAUTION...ESPECIALLY
DEWPOINT OBSERVATIONS.

SCZ027-030-031-034>040-042>050-012200-
...SOUTH CAROLINA...

CITY           SKY/WX    TMP DP  RH WIND       PRES   REMARKS
N CHARLESTON   MOSUNNY   81  67  62 S10       29.97S
WATERFRONT PRK   N/A     79 N/A N/A SE10        N/A
FORT JOHNSON   NOT AVBL
MOUNT PLEASANT FAIR      79  66  65 SE5       29.98R
JOHNS ISLAND   CLEAR     79  73  83 E6        29.98R
PINOPOLIS        N/A     88  64  45 W2        29.89F
MONCKS CORNER  FAIR      84  66  54 CALM      29.96S
SUMMERVILLE    FAIR      82  64  54 CALM      29.97S
BEAUFORT MCAS  MOSUNNY   83  66  56 SE3       29.96F
BEAUFORT ARPT  FAIR      81  68  65 E5        29.96S
HILTON HEAD IS SUNNY     79  68  69 E5        29.98F
GEORGETOWN     NOT AVBL
WALTERBORO     CLEAR     84  59  42 E5        29.97S
ORANGEBURG     PTSUNNY   84  60  44 S5        29.96F
BARNWELL       FAIR      84  61  45 S5        29.97S
AIKEN          FAIR      84  63  48 CALM      30.00S
MANNING        FAIR      82  66  57 CALM      29.96F
KINGSTREE      NOT AVBL
COLUMBIA       MOSUNNY   87  54  32 CALM      29.95S
SUMTER         SUNNY     85  61  44 VRB3      29.95S
FLORENCE       MOSUNNY   82  62  50 E7        29.96S
MYRTLE BEACH   MOSUNNY   79  64  61 S8        29.97S
N MYRTLE BEACH SUNNY     78  66  66 S7        29.96F

$$

GAZ063-065-086>088-099>101-113>116-118-119-134-136>141-150-012200-
...GEORGIA...

CITY           SKY/WX    TMP DP  RH WIND       PRES   REMARKS
SAVANNAH ARPT  MOSUNNY   84  64  50 E7        29.96S
HUNTER AAF     SUNNY     81  67  61 SE8       29.95S
FORT STEWART   MOSUNNY   81  65  58 SE6       29.95S
STATESBORO     NOT AVBL
SYLVANIA       PTCLDY    82  71  69 CALM      29.98R
CLAXTON        MOCLDY    82  64  54 CALM      29.96S
THOMSON        SUNNY     85  67  55 CALM      30.00F
AUGUSTA-BUSH   SUNNY     85  59  41 S5        29.95S
AUGUSTA-DANIEL SUNNY     86  58  38 VRB3      29.97S
SWAINSBORO     CLOUDY    86  64  48 E3        29.97S
VIDALIA        MOSUNNY   84  64  51 CALM      29.96S
ALMA           CLOUDY    82  65  56 SE5       29.95F
WAYCROSS       CLOUDY    83  70  64 CALM      29.96S
JESUP          CLOUDY    82  72  69 CALM      29.97R
BRUNSWICK      CLOUDY    79  68  69 NE9       29.97S
SAINT SIMONS   CLOUDY    79  69  71 E10       29.96F

$$

SCZ027-028-034-036>038-045-046-048>050-GAZ119-141-012200-
...LAKE AND SUPPLEMENTAL COASTAL OBSERVATIONS...

STATION/POSITION TIME  TEMP    WIND        PRES    WAVE   SWELL
                       AIR SEA DIR/SP/G            HT/PER HT/PER/DIR
                 (UTC) (F)     (DEG/KT/KT) (MB)    (FT/S) (FT/S/D)
UPR LAKE MARION  NOT AVBL
WINYAH BAY       2100   76     110/  6     1015.0S
LAKE MURRAY      2000   83     200/  4/  5 1013.9S
ACE BASIN NERRS  2100   79     140/  3     1015.0S
FORT PULASKI     2100   78      90/  9/ 11 1015.2S
SAPELO ISLAND    NOT AVBL

$$

ANZ835-935-AMZ111-154-330-350-352-354-374-450-454-472-012200-
...C-MAN AND BUOY OBSERVATIONS...

STATION/POSITION TIME  TEMP    WIND        PRES    WAVE   SWELL
                       AIR SEA DIR/SP/G            HT/PER HT/PER/DIR
                 (UTC) (F)     (DEG/KT/KT) (MB)    (FT/S) (FT/S/D)
FOLLY BEACH CMAN 2100   77     100/  7/  8 1015.4F
BUOY 41004       2100   77 81   30/  8/ 12 1014.5F   2/ 7   2/ 7
BUOY 41008       2100   77 79   40/ 10/ 12 1014.6S   2/ 8   2/100/ 8
5E ST. MARYS GA  2000      79                N/A     3/ 8
FRYING PAN BUOY  NOT AVBL
BUOY 41025       2100   72     360/ 17/ 19 1014.2R   3/ 7   2/ 50/ 7
CAPE LOOKOUT NC  2100   75      50/ 10/ 11 1014.5R
BUOY 41002       2044   80 81  360/ 12/ 14 1012.3S   4/ 6   3/ 10/ 6
BUOY 41010       2100   80 85   30/  2/  4 1012.8F   3/ 7   3/ 10/ 7
BUOY 41012       NOT AVBL
ST AUGUSTINE FL  2100   79      20/ 15/ 16 1014.2F
CAPERS NEARSHORE 2000   77     110/  8/  8   N/A
FRIPP NEARSHORE  NOT AVBL


$$


USA.gov is the U.S. government's official web portal to all federal, state and local government web resources and services.